Погода Verona

Погода Verona : погода сейчас, прогноз погоды и архив. Всё, что Вы хотите узнать о погоде Verona!

Поиск расширенной информации на нашем сайте:

Другие новости

Новости СМИ2

Главная страница сайта

Новости сайта

03.07.2017

Напоминаем, что на нашем специализированном сайте Метеоцентр.Азия вы можете получить высокодетализированные автоматические прогнозы погоды по пунктам России, СНГ и мира в авиационном формате (включающие направление и скорость ветра, видимость, явления погоды, количество и форму облачности, нижнюю и верхнюю границу облачности).


Погода Verona - сегодня

Время (UTC), дата Ветер
(°,м/с) 
Видим.   Явления Облачность Т
(°С)
Тd
(°С)
f(%) Тe
(°С)
Pmin
(гПа)
dP
(гПа)
Po
(мм)
O2
(г/м3)
Тmin Tmax R s Состояние
почвы
21 01.07.15 070 (В) 20000 м    ясно 
+25 +16.2 58 +35  1020.9  1.1  760  277           
00 02.07.15 040 (СВ) 20000 м    ясно 
+23.4 +16.7 66 +35  1021.7  0.7  760  279           
03 02.07.15 350 (С) 20000 м    4/0 верхняя 
[Ci fib]
+21.2 +17.8 81 +35  1021.8  760  280           
06 02.07.15 020 (С) 20000 м    ясно 
+24 +18.4 71 +39  1022  0.3  761  277          сухая 
15 17.07.17 200 (Ю) н/о    н/о 
+6.7 +0.7 66 +7  1009.7  751  295           
21 18.07.17 200 (Ю) н/о    н/о 
+6.7 +0.7 66 +7  1009.7  751  295           
00 19.07.17 200 (Ю) н/о    н/о 
+6.7 +0.7 66 +7  1009.7  751  295           
06 19.07.17 200 (Ю) н/о    н/о 
+6.7 +0.7 66 +7  1009.7  751  295           
09 19.07.17 200 (Ю) н/о    н/о 
+6.7 +0.7 66 +7  1009.7  751  295           
15 19.07.17 200 (Ю) н/о    н/о 
+6.7 +0.7 66 +7  1009.7  751  295           
18 29.08.17 200 (Ю) н/о    н/о 
+6.7 +0.7 66 +7  1009.7  751  295           
21 29.08.17 200 (Ю) н/о    н/о 
+6.7 +0.7 66 +7  1009.7  751  295           
00 30.08.17 200 (Ю) н/о    н/о 
+6.7 +0.7 66 +7  1009.7  751  295           
03 30.08.17 200 (Ю) н/о    н/о 
+6.7 +0.7 66 +7  1009.7  751  295           
06 30.08.17 200 (Ю) н/о    н/о 
+6.7 +0.7 66 +7  1009.7  751  295           
09 30.08.17 200 (Ю) н/о    н/о 
+6.7 +0.7 66 +7  1009.7  751  295           
12 30.08.17 200 (Ю) н/о    н/о 
+6.7 +0.7 66 +7  1009.7  751  295           
15 30.08.17 200 (Ю) н/о    н/о 
+6.7 +0.7 66 +7  1009.7  751  295           
18 30.08.17 200 (Ю) н/о    н/о 
+6.7 +0.7 66 +7  1009.7  751  295           
21 30.08.17 200 (Ю) н/о    н/о 
+6.7 +0.7 66 +7  1009.7  751  295           
00 31.08.17 200 (Ю) н/о    н/о 
+6.7 +0.7 66 +7  1009.7  751  295           
03 31.08.17 200 (Ю) н/о    н/о 
+6.7 +0.7 66 +7  1009.7  751  295           
06 31.08.17 200 (Ю) н/о    н/о 
+6.7 +0.7 66 +7  1009.7  751  295           
09 31.08.17 200 (Ю) н/о    н/о 
+6.7 +0.7 66 +7  1009.7  751  295           
12 31.08.17 200 (Ю) н/о    н/о 
+6.7 +0.7 66 +7  1009.7  751  295           
Время (UTC), дата Ветер
(°,м/с) 
Видим.   Явления Облачность Т
(°С)
Тd
(°С)
f(%) Тe
(°С)
Pmin
(гПа)
dP
(гПа)
Po
(мм)
O2
(г/м3)
Тmin Tmax R s Состояние
почвы

Для получения пояснительной информации подведите курсор к названию столбца.

ПОГОДА Verona - архив

Всё, что Вы хотите узнать о погоде Verona - удобно и подробно!

Выберите нужную дату (начиная с 1 января 2015* года) и нажмите кнопку "Найти".
Будут отображены архивные сводки погоды по пункту Verona, начиная с указанной даты.


Отображать данные в формате CSV (для использования в таблицах Excel)


Внимание! Наш архив погоды предназначен исключительно для личного некоммерческого использования в познавательных целях. Если Вам необходимы официальные справки о состоянии погоды (для производственных, юридических, коммерческих и т.п. целей), обращайтесь в органы Росгидромета.

*Примечание: данная дата относится к архиву по метеостанциям СССР (Россия, СНГ, Балтия).
Архив по метеостанциям Зарубежной Европы и Азии (кроме Китая) хранится 10 дней, по другим регионам земного шара (Китай, Африка, Америка, Австралия, Океания) - 1 день.

Verona - район местоположения метеостанции


Название, широта, долгота, высота метеостанции:
Verona (Villafranca) 45.4°ш. 10.9°д. 68 м над ур. моря [Italy]

Дополнительная информация

В oтличие oт бoльшинства пoгoдных сайтoв мы публикуем пoдрoбную метеoинфoрмацию в детальнoм прoфессиoнальнoм фoрмате.

Характеристики температуры и влажнoсти вoздуха измеряются на высoте 2 м в тени вдали oт зданий и деревьев.
Скoрoсть ветра измеряется на высoте 10 м (на урoвне рoста челoвека скoрoсть ветра ниже в 1.5-2 раза). Если метеoстанция нахoдится в гoрoде или в лесу, тo скoрoсть ветра занижена на 2-4 м/с пo сравнению с oткрытым местoм. Скoрoсть ветра над акватoриями крупных рек и oзёр, а также на вершинах хoлмoв на 2-5 м/с выше, чем в oбычных услoвиях.
Атмoсфернoе давление в разных тoчках местнoсти мoжет значительнo oтличаться oт давления на метеoстанции, в зависимoсти oт услoвий рельефа (при пoдъёме на 10 м давление пoнижается примернo на 1 мм рт.ст.).